Year,Month,Day,Hour,Minute,Value (Times are PST for windspeed in km/hr)
2007,12,29,00,00,1.70
2007,12,29,00,01,0.80
2007,12,29,00,02,0.00
2007,12,29,00,03,0.00
2007,12,29,00,04,0.00
2007,12,29,00,05,1.30
2007,12,29,00,06,0.60
2007,12,29,00,07,0.00
2007,12,29,00,08,0.00
2007,12,29,00,09,0.60
2007,12,29,00,10,1.50
2007,12,29,00,11,0.30
2007,12,29,00,12,0.10
2007,12,29,00,13,0.00
2007,12,29,00,14,0.00
2007,12,29,00,15,0.80
2007,12,29,00,16,3.00
2007,12,29,00,17,2.00
2007,12,29,00,18,2.00
2007,12,29,00,19,2.80
2007,12,29,00,20,0.40
2007,12,29,00,21,0.10
2007,12,29,00,22,0.60
2007,12,29,00,23,1.30
2007,12,29,00,24,1.50
2007,12,29,00,25,2.60
2007,12,29,00,26,3.40
2007,12,29,00,27,2.30
2007,12,29,00,28,1.80
2007,12,29,00,29,0.00
2007,12,29,00,30,0.60
2007,12,29,00,31,0.20
2007,12,29,00,32,0.90
2007,12,29,00,33,1.50
2007,12,29,00,34,0.00
2007,12,29,00,35,0.00
2007,12,29,00,36,0.00
2007,12,29,00,37,0.00
2007,12,29,00,38,0.50
2007,12,29,00,39,0.10
2007,12,29,00,40,0.00
2007,12,29,00,41,2.30
2007,12,29,00,42,0.30
2007,12,29,00,43,0.00
2007,12,29,00,44,0.00
2007,12,29,00,45,1.20
2007,12,29,00,46,2.20
2007,12,29,00,47,0.20
2007,12,29,00,48,0.90
2007,12,29,00,49,1.70
2007,12,29,00,50,1.50
2007,12,29,00,51,0.00
2007,12,29,00,52,0.00
2007,12,29,00,53,0.90
2007,12,29,00,54,1.00
2007,12,29,00,55,0.00
2007,12,29,00,56,0.00
2007,12,29,00,57,0.00
2007,12,29,00,58,1.80
2007,12,29,00,59,1.20
2007,12,29,01,00,0.50
2007,12,29,01,01,0.10
2007,12,29,01,02,0.70
2007,12,29,01,03,0.60
2007,12,29,01,04,0.80
2007,12,29,01,05,1.80
2007,12,29,01,06,1.00
2007,12,29,01,07,1.40
2007,12,29,01,08,1.30
2007,12,29,01,09,0.00
2007,12,29,01,10,0.00
2007,12,29,01,11,0.00
2007,12,29,01,12,1.70
2007,12,29,01,13,0.20
2007,12,29,01,14,0.00
2007,12,29,01,15,0.00
2007,12,29,01,16,0.00
2007,12,29,01,17,0.20
2007,12,29,01,18,0.00
2007,12,29,01,19,0.10
2007,12,29,01,20,0.00
2007,12,29,01,21,2.20
2007,12,29,01,22,1.90
2007,12,29,01,23,0.60
2007,12,29,01,24,3.00
2007,12,29,01,25,1.00
2007,12,29,01,26,0.10
2007,12,29,01,27,0.10
2007,12,29,01,28,0.70
2007,12,29,01,29,0.40
2007,12,29,01,30,1.40
2007,12,29,01,31,3.50
2007,12,29,01,32,0.00
2007,12,29,01,33,0.00
2007,12,29,01,34,0.00
2007,12,29,01,35,0.00
2007,12,29,01,36,0.00
2007,12,29,01,37,0.00
2007,12,29,01,38,0.00
2007,12,29,01,39,0.00
2007,12,29,01,40,0.20
2007,12,29,01,41,1.00
2007,12,29,01,42,0.00
2007,12,29,01,43,0.20
2007,12,29,01,44,2.50
2007,12,29,01,45,1.00
2007,12,29,01,46,1.90
2007,12,29,01,47,1.30
2007,12,29,01,48,0.00
2007,12,29,01,49,0.10
2007,12,29,01,50,1.40
2007,12,29,01,51,0.80
2007,12,29,01,52,0.10
2007,12,29,01,53,0.00
2007,12,29,01,54,0.00
2007,12,29,01,55,0.00
2007,12,29,01,56,0.00
2007,12,29,01,57,0.00
2007,12,29,01,58,0.00
2007,12,29,01,59,0.10
2007,12,29,02,00,0.00
2007,12,29,02,01,0.70
2007,12,29,02,02,2.00
2007,12,29,02,03,1.10
2007,12,29,02,04,2.50
2007,12,29,02,05,1.80
2007,12,29,02,06,1.60
2007,12,29,02,07,2.60
2007,12,29,02,08,2.30
2007,12,29,02,09,2.50
2007,12,29,02,10,2.90
2007,12,29,02,11,1.30
2007,12,29,02,12,3.10
2007,12,29,02,13,3.20
2007,12,29,02,14,3.90
2007,12,29,02,15,3.70
2007,12,29,02,16,2.90
2007,12,29,02,17,3.50
2007,12,29,02,18,2.40
2007,12,29,02,19,3.10
2007,12,29,02,20,4.00
2007,12,29,02,21,4.10
2007,12,29,02,22,3.90
2007,12,29,02,23,5.10
2007,12,29,02,24,2.60
2007,12,29,02,25,2.50
2007,12,29,02,26,2.60
2007,12,29,02,27,3.60
2007,12,29,02,28,1.80
2007,12,29,02,29,1.10
2007,12,29,02,30,1.90
2007,12,29,02,31,3.30
2007,12,29,02,32,3.70
2007,12,29,02,33,2.90
2007,12,29,02,34,3.90
2007,12,29,02,35,3.10
2007,12,29,02,36,3.10
2007,12,29,02,37,2.70
2007,12,29,02,38,2.90
2007,12,29,02,39,2.40
2007,12,29,02,40,3.90
2007,12,29,02,41,5.00
2007,12,29,02,42,5.80
2007,12,29,02,43,4.20
2007,12,29,02,44,3.30
2007,12,29,02,45,4.30
2007,12,29,02,46,3.90
2007,12,29,02,47,5.60
2007,12,29,02,48,5.00
2007,12,29,02,49,2.80
2007,12,29,02,50,2.30
2007,12,29,02,51,3.60
2007,12,29,02,52,5.30
2007,12,29,02,53,3.90
2007,12,29,02,54,3.70
2007,12,29,02,55,2.90
2007,12,29,02,56,4.80
2007,12,29,02,57,3.70
2007,12,29,02,58,3.00
2007,12,29,02,59,4.30
2007,12,29,03,00,3.60
2007,12,29,03,01,5.10
2007,12,29,03,02,3.20
2007,12,29,03,03,3.20
2007,12,29,03,04,0.60
2007,12,29,03,05,3.20
2007,12,29,03,06,2.40
2007,12,29,03,07,1.70
2007,12,29,03,08,1.30
2007,12,29,03,09,1.50
2007,12,29,03,10,1.60
2007,12,29,03,11,2.40
2007,12,29,03,12,2.40
2007,12,29,03,13,2.40
2007,12,29,03,14,0.50
2007,12,29,03,15,1.30
2007,12,29,03,16,0.20
2007,12,29,03,17,1.40
2007,12,29,03,18,0.20
2007,12,29,03,19,1.10
2007,12,29,03,20,0.40
2007,12,29,03,21,1.40
2007,12,29,03,22,0.90
2007,12,29,03,23,1.60
2007,12,29,03,24,2.50
2007,12,29,03,25,3.60
2007,12,29,03,26,3.70
2007,12,29,03,27,1.50
2007,12,29,03,28,2.80
2007,12,29,03,29,1.60
2007,12,29,03,30,3.40
2007,12,29,03,31,2.90
2007,12,29,03,32,3.60
2007,12,29,03,33,2.80
2007,12,29,03,34,2.20
2007,12,29,03,35,3.00
2007,12,29,03,36,2.70
2007,12,29,03,37,1.30
2007,12,29,03,38,1.50
2007,12,29,03,39,2.20
2007,12,29,03,40,1.50
2007,12,29,03,41,2.30
2007,12,29,03,42,2.60
2007,12,29,03,43,2.90
2007,12,29,03,44,2.40
2007,12,29,03,45,3.00
2007,12,29,03,46,3.60
2007,12,29,03,47,3.00
2007,12,29,03,48,3.80
2007,12,29,03,49,3.00
2007,12,29,03,50,3.10
2007,12,29,03,51,3.10
2007,12,29,03,52,2.80
2007,12,29,03,53,3.70
2007,12,29,03,54,3.70
2007,12,29,03,55,4.00
2007,12,29,03,56,3.30
2007,12,29,03,57,5.50
2007,12,29,03,58,2.70
2007,12,29,03,59,3.50
2007,12,29,04,00,1.70
2007,12,29,04,01,2.90
2007,12,29,04,02,1.80
2007,12,29,04,03,2.80
2007,12,29,04,04,3.00
2007,12,29,04,05,3.10
2007,12,29,04,06,2.90
2007,12,29,04,07,3.70
2007,12,29,04,08,2.50
2007,12,29,04,09,2.10
2007,12,29,04,10,2.30
2007,12,29,04,11,1.10
2007,12,29,04,12,1.90
2007,12,29,04,13,2.90
2007,12,29,04,14,4.40
2007,12,29,04,15,4.10
2007,12,29,04,16,5.50
2007,12,29,04,17,4.30
2007,12,29,04,18,4.30
2007,12,29,04,19,4.70
2007,12,29,04,20,4.90
2007,12,29,04,21,3.50
2007,12,29,04,22,4.30
2007,12,29,04,23,4.20
2007,12,29,04,24,3.40
2007,12,29,04,25,4.50
2007,12,29,04,26,4.40
2007,12,29,04,27,3.10
2007,12,29,04,28,4.30
2007,12,29,04,29,3.20
2007,12,29,04,30,4.40
2007,12,29,04,31,3.10
2007,12,29,04,32,3.30
2007,12,29,04,33,3.00
2007,12,29,04,34,2.70
2007,12,29,04,35,2.50
2007,12,29,04,36,2.50
2007,12,29,04,37,3.60
2007,12,29,04,38,3.10
2007,12,29,04,39,3.20
2007,12,29,04,40,2.10
2007,12,29,04,41,2.70
2007,12,29,04,42,2.50
2007,12,29,04,43,3.00
2007,12,29,04,44,2.00
2007,12,29,04,45,1.30
2007,12,29,04,46,2.00
2007,12,29,04,47,3.10
2007,12,29,04,48,2.50
2007,12,29,04,49,2.30
2007,12,29,04,50,2.50
2007,12,29,04,51,1.40
2007,12,29,04,52,1.90
2007,12,29,04,53,3.00
2007,12,29,04,54,2.80
2007,12,29,04,55,5.10
2007,12,29,04,56,4.10
2007,12,29,04,57,1.90
2007,12,29,04,58,2.30
2007,12,29,04,59,1.60
2007,12,29,05,00,2.30
2007,12,29,05,01,0.70
2007,12,29,05,02,1.70
2007,12,29,05,03,1.90
2007,12,29,05,04,3.40
2007,12,29,05,05,2.20
2007,12,29,05,06,0.90
2007,12,29,05,07,2.10
2007,12,29,05,08,1.20
2007,12,29,05,09,2.10
2007,12,29,05,10,1.30
2007,12,29,05,11,1.10
2007,12,29,05,12,0.30
2007,12,29,05,13,1.10
2007,12,29,05,14,1.90
2007,12,29,05,15,3.30
2007,12,29,05,16,0.30
2007,12,29,05,17,1.00
2007,12,29,05,18,1.30
2007,12,29,05,19,0.00
2007,12,29,05,20,0.00
2007,12,29,05,21,0.00
2007,12,29,05,22,0.30
2007,12,29,05,23,0.00
2007,12,29,05,24,0.20
2007,12,29,05,25,0.00
2007,12,29,05,26,0.00
2007,12,29,05,27,0.00
2007,12,29,05,28,0.70
2007,12,29,05,29,0.40
2007,12,29,05,30,0.00
2007,12,29,05,31,0.00
2007,12,29,05,32,0.00
2007,12,29,05,33,0.00
2007,12,29,05,34,0.20
2007,12,29,05,35,0.10
2007,12,29,05,36,0.00
2007,12,29,05,37,0.30
2007,12,29,05,38,0.00
2007,12,29,05,39,0.90
2007,12,29,05,40,2.10
2007,12,29,05,41,1.30
2007,12,29,05,42,0.70
2007,12,29,05,43,2.90
2007,12,29,05,44,1.80
2007,12,29,05,45,2.40
2007,12,29,05,46,2.10
2007,12,29,05,47,1.90
2007,12,29,05,48,1.40
2007,12,29,05,49,2.00
2007,12,29,05,50,2.20
2007,12,29,05,51,1.10
2007,12,29,05,52,0.00
2007,12,29,05,53,2.00
2007,12,29,05,54,1.80
2007,12,29,05,55,1.50
2007,12,29,05,56,1.00
2007,12,29,05,57,1.10
2007,12,29,05,58,0.10
2007,12,29,05,59,1.60
2007,12,29,06,00,1.80
2007,12,29,06,01,0.50
2007,12,29,06,02,0.40
2007,12,29,06,03,0.00
2007,12,29,06,04,0.10
2007,12,29,06,05,1.20
2007,12,29,06,06,0.50
2007,12,29,06,07,0.00
2007,12,29,06,08,0.00
2007,12,29,06,09,0.00
2007,12,29,06,10,1.60
2007,12,29,06,11,2.20
2007,12,29,06,12,2.60
2007,12,29,06,13,0.10
2007,12,29,06,14,0.90
2007,12,29,06,15,2.90
2007,12,29,06,16,3.00
2007,12,29,06,17,3.90
2007,12,29,06,18,5.50
2007,12,29,06,19,2.80
2007,12,29,06,20,3.00
2007,12,29,06,21,4.00
2007,12,29,06,22,2.30
2007,12,29,06,23,3.40
2007,12,29,06,24,4.50
2007,12,29,06,25,0.80
2007,12,29,06,26,2.20
2007,12,29,06,27,3.80
2007,12,29,06,28,2.90
2007,12,29,06,29,3.40
2007,12,29,06,30,5.10
2007,12,29,06,31,4.70
2007,12,29,06,32,2.70
2007,12,29,06,33,4.60
2007,12,29,06,34,2.60
2007,12,29,06,35,1.90
2007,12,29,06,36,2.70
2007,12,29,06,37,3.40
2007,12,29,06,38,2.30
2007,12,29,06,39,2.90
2007,12,29,06,40,3.70
2007,12,29,06,41,4.10
2007,12,29,06,42,4.30
2007,12,29,06,43,3.00
2007,12,29,06,44,3.60
2007,12,29,06,45,1.10
2007,12,29,06,46,1.80
2007,12,29,06,47,3.50
2007,12,29,06,48,3.90
2007,12,29,06,49,2.80
2007,12,29,06,50,3.00
2007,12,29,06,51,2.30
2007,12,29,06,52,2.40
2007,12,29,06,53,1.90
2007,12,29,06,54,2.60
2007,12,29,06,55,1.50
2007,12,29,06,56,0.60
2007,12,29,06,57,2.30
2007,12,29,06,58,1.00
2007,12,29,06,59,2.60
2007,12,29,07,00,4.10
2007,12,29,07,01,2.60
2007,12,29,07,02,3.40
2007,12,29,07,03,2.90
2007,12,29,07,04,2.80
2007,12,29,07,05,2.40
2007,12,29,07,06,1.30
2007,12,29,07,07,3.20
2007,12,29,07,08,2.70
2007,12,29,07,09,2.50
2007,12,29,07,10,3.80
2007,12,29,07,11,2.80
2007,12,29,07,12,2.90
2007,12,29,07,13,2.60
2007,12,29,07,14,1.70
2007,12,29,07,15,2.80
2007,12,29,07,16,1.70
2007,12,29,07,17,1.90
2007,12,29,07,18,3.80
2007,12,29,07,19,3.90
2007,12,29,07,20,4.40
2007,12,29,07,21,3.60
2007,12,29,07,22,0.60
2007,12,29,07,23,0.00
2007,12,29,07,24,0.00
2007,12,29,07,25,0.00
2007,12,29,07,26,1.50
2007,12,29,07,27,0.40
2007,12,29,07,28,1.00
2007,12,29,07,29,2.50
2007,12,29,07,30,0.50
2007,12,29,07,31,0.00
2007,12,29,07,32,0.00
2007,12,29,07,33,0.00
2007,12,29,07,34,0.10
2007,12,29,07,35,0.70
2007,12,29,07,36,2.00
2007,12,29,07,37,2.30
2007,12,29,07,38,0.70
2007,12,29,07,39,2.60
2007,12,29,07,40,1.10
2007,12,29,07,41,1.60
2007,12,29,07,42,0.00
2007,12,29,07,43,0.10
2007,12,29,07,44,0.00
2007,12,29,07,45,0.00
2007,12,29,07,46,1.70
2007,12,29,07,47,1.10
2007,12,29,07,48,0.20
2007,12,29,07,49,1.70
2007,12,29,07,50,1.40
2007,12,29,07,51,0.40
2007,12,29,07,52,0.00
2007,12,29,07,53,0.30
2007,12,29,07,54,0.00
2007,12,29,07,55,0.90
2007,12,29,07,56,0.40
2007,12,29,07,57,0.40
2007,12,29,07,58,0.80
2007,12,29,07,59,0.10
2007,12,29,08,00,0.00
2007,12,29,08,01,0.00
2007,12,29,08,02,0.00
2007,12,29,08,03,0.00
2007,12,29,08,04,0.00
2007,12,29,08,05,0.10
2007,12,29,08,06,0.00
2007,12,29,08,07,0.00
2007,12,29,08,08,0.00
2007,12,29,08,09,0.00
2007,12,29,08,10,0.00
2007,12,29,08,11,0.10
2007,12,29,08,12,0.70
2007,12,29,08,13,2.30
2007,12,29,08,14,0.00
2007,12,29,08,15,0.30
2007,12,29,08,16,0.60
2007,12,29,08,17,0.60
2007,12,29,08,18,0.00
2007,12,29,08,19,1.80
2007,12,29,08,20,1.60
2007,12,29,08,21,0.10
2007,12,29,08,22,0.00
2007,12,29,08,23,0.00
2007,12,29,08,24,0.00
2007,12,29,08,25,0.00
2007,12,29,08,26,0.00
2007,12,29,08,27,0.10
2007,12,29,08,28,2.00
2007,12,29,08,29,1.50
2007,12,29,08,30,1.30
2007,12,29,08,31,1.90
2007,12,29,08,32,2.20
2007,12,29,08,33,1.60
2007,12,29,08,34,0.80
2007,12,29,08,35,0.80
2007,12,29,08,36,0.20
2007,12,29,08,37,0.00
2007,12,29,08,38,0.10
2007,12,29,08,39,0.00
2007,12,29,08,40,0.00
2007,12,29,08,41,0.00
2007,12,29,08,42,0.00
2007,12,29,08,43,0.00
2007,12,29,08,44,0.00
2007,12,29,08,45,0.00
2007,12,29,08,46,0.00
2007,12,29,08,47,0.00
2007,12,29,08,48,0.00
2007,12,29,08,49,0.00
2007,12,29,08,50,0.00
2007,12,29,08,51,0.00
2007,12,29,08,52,2.10
2007,12,29,08,53,2.80
2007,12,29,08,54,2.90
2007,12,29,08,55,2.10
2007,12,29,08,56,2.50
2007,12,29,08,57,1.40
2007,12,29,08,58,0.70
2007,12,29,08,59,0.80
2007,12,29,09,00,1.30
2007,12,29,09,01,1.50
2007,12,29,09,02,2.60
2007,12,29,09,03,2.70
2007,12,29,09,04,2.80
2007,12,29,09,05,2.30
2007,12,29,09,06,2.10
2007,12,29,09,07,1.20
2007,12,29,09,08,0.20
2007,12,29,09,09,0.00
2007,12,29,09,10,0.00
2007,12,29,09,11,0.00
2007,12,29,09,12,0.00
2007,12,29,09,13,0.00
2007,12,29,09,14,0.00
2007,12,29,09,15,0.00
2007,12,29,09,16,0.40
2007,12,29,09,17,0.30
2007,12,29,09,18,0.10
2007,12,29,09,19,0.10
2007,12,29,09,20,1.30
2007,12,29,09,21,2.30
2007,12,29,09,22,1.40
2007,12,29,09,23,0.60
2007,12,29,09,24,1.00
2007,12,29,09,25,1.10
2007,12,29,09,26,0.20
2007,12,29,09,27,0.00
2007,12,29,09,28,0.00
2007,12,29,09,29,0.00
2007,12,29,09,30,0.00
2007,12,29,09,31,0.00
2007,12,29,09,32,0.30
2007,12,29,09,33,2.60
2007,12,29,09,34,3.00
2007,12,29,09,35,3.90
2007,12,29,09,36,4.00
2007,12,29,09,37,3.40
2007,12,29,09,38,5.30
2007,12,29,09,39,5.80
2007,12,29,09,40,3.70
2007,12,29,09,41,2.60
2007,12,29,09,42,2.60
2007,12,29,09,43,3.70
2007,12,29,09,44,2.70
2007,12,29,09,45,3.00
2007,12,29,09,46,3.90
2007,12,29,09,47,2.20
2007,12,29,09,48,0.70
2007,12,29,09,49,0.00
2007,12,29,09,50,0.00
2007,12,29,09,51,0.70
2007,12,29,09,52,0.40
2007,12,29,09,53,0.00
2007,12,29,09,54,0.00
2007,12,29,09,55,0.00
2007,12,29,09,56,0.00
2007,12,29,09,57,0.00
2007,12,29,09,58,0.00
2007,12,29,09,59,0.00
2007,12,29,10,00,0.00
2007,12,29,10,01,0.00
2007,12,29,10,02,0.00
2007,12,29,10,03,0.00
2007,12,29,10,04,1.00
2007,12,29,10,05,0.00
2007,12,29,10,06,0.70
2007,12,29,10,07,0.30
2007,12,29,10,08,1.40
2007,12,29,10,09,0.40
2007,12,29,10,10,0.00
2007,12,29,10,11,0.00
2007,12,29,10,12,0.00
2007,12,29,10,13,0.70
2007,12,29,10,14,2.30
2007,12,29,10,15,0.00
2007,12,29,10,16,0.00
2007,12,29,10,17,0.00
2007,12,29,10,18,0.00
2007,12,29,10,19,0.00
2007,12,29,10,20,1.00
2007,12,29,10,21,0.00
2007,12,29,10,22,0.00
2007,12,29,10,23,0.00
2007,12,29,10,24,0.20
2007,12,29,10,25,0.60
2007,12,29,10,26,0.00
2007,12,29,10,27,0.00
2007,12,29,10,28,0.00
2007,12,29,10,29,0.00
2007,12,29,10,30,0.10
2007,12,29,10,31,0.00
2007,12,29,10,32,0.70
2007,12,29,10,33,0.30
2007,12,29,10,34,0.00
2007,12,29,10,35,0.00
2007,12,29,10,36,0.50
2007,12,29,10,37,1.60
2007,12,29,10,38,0.60
2007,12,29,10,39,0.00
2007,12,29,10,40,0.00
2007,12,29,10,41,0.00
2007,12,29,10,42,0.00
2007,12,29,10,43,0.00
2007,12,29,10,44,0.10
2007,12,29,10,45,2.80
2007,12,29,10,46,0.50
2007,12,29,10,47,2.10
2007,12,29,10,48,1.60
2007,12,29,10,49,0.20
2007,12,29,10,50,0.10
2007,12,29,10,51,0.00
2007,12,29,10,52,1.70
2007,12,29,10,53,2.90
2007,12,29,10,54,2.80
2007,12,29,10,55,5.00
2007,12,29,10,56,5.00
2007,12,29,10,57,2.30
2007,12,29,10,58,4.10
2007,12,29,10,59,5.80
2007,12,29,11,00,8.20
2007,12,29,11,01,6.80
2007,12,29,11,02,4.10
2007,12,29,11,03,6.00
2007,12,29,11,04,7.10
2007,12,29,11,05,3.50
2007,12,29,11,06,6.10
2007,12,29,11,07,13.70
2007,12,29,11,08,8.80
2007,12,29,11,09,6.70
2007,12,29,11,10,7.50
2007,12,29,11,11,11.30
2007,12,29,11,12,10.60
2007,12,29,11,13,12.10
2007,12,29,11,14,10.50
2007,12,29,11,15,8.70
2007,12,29,11,16,9.20
2007,12,29,11,17,10.60
2007,12,29,11,18,14.10
2007,12,29,11,19,15.80
2007,12,29,11,20,13.10
2007,12,29,11,21,9.50
2007,12,29,11,22,12.40
2007,12,29,11,23,10.90
2007,12,29,11,24,8.00
2007,12,29,11,25,13.40
2007,12,29,11,26,9.60
2007,12,29,11,27,14.40
2007,12,29,11,28,12.90
2007,12,29,11,29,12.80
2007,12,29,11,30,12.00
2007,12,29,11,31,8.20
2007,12,29,11,32,9.50
2007,12,29,11,33,8.50
2007,12,29,11,34,9.10
2007,12,29,11,35,16.20
2007,12,29,11,36,13.60
2007,12,29,11,37,17.80
2007,12,29,11,38,10.70
2007,12,29,11,39,11.40
2007,12,29,11,40,10.90
2007,12,29,11,41,13.20
2007,12,29,11,42,19.30
2007,12,29,11,43,18.60
2007,12,29,11,44,15.70
2007,12,29,11,45,9.20
2007,12,29,11,46,14.10
2007,12,29,11,47,14.30
2007,12,29,11,48,8.90
2007,12,29,11,49,13.80
2007,12,29,11,50,14.50
2007,12,29,11,51,12.60
2007,12,29,11,52,16.30
2007,12,29,11,53,13.00
2007,12,29,11,54,13.40
2007,12,29,11,55,14.50
2007,12,29,11,56,16.60
2007,12,29,11,57,17.50
2007,12,29,11,58,19.10
2007,12,29,11,59,18.60
2007,12,29,12,00,14.90
2007,12,29,12,01,12.70
2007,12,29,12,02,15.50
2007,12,29,12,03,13.90
2007,12,29,12,04,17.60
2007,12,29,12,05,15.00
2007,12,29,12,06,12.30
2007,12,29,12,07,18.70
2007,12,29,12,08,14.40
2007,12,29,12,09,16.20
2007,12,29,12,10,15.60
2007,12,29,12,11,15.30
2007,12,29,12,12,15.50
2007,12,29,12,13,15.50
2007,12,29,12,14,16.60
2007,12,29,12,15,10.60
2007,12,29,12,16,14.00
2007,12,29,12,17,10.50
2007,12,29,12,18,10.30
2007,12,29,12,19,11.60
2007,12,29,12,20,14.20
2007,12,29,12,21,10.10
2007,12,29,12,22,15.20
2007,12,29,12,23,16.20
2007,12,29,12,24,12.60
2007,12,29,12,25,14.20
2007,12,29,12,26,13.80
2007,12,29,12,27,12.30
2007,12,29,12,28,20.40
2007,12,29,12,29,17.80
2007,12,29,12,30,16.10
2007,12,29,12,31,17.60
2007,12,29,12,32,22.40
2007,12,29,12,33,17.50
2007,12,29,12,34,13.50
2007,12,29,12,35,14.60
2007,12,29,12,36,12.10
2007,12,29,12,37,11.70
2007,12,29,12,38,14.20
2007,12,29,12,39,17.80
2007,12,29,12,40,18.10
2007,12,29,12,41,12.80
2007,12,29,12,42,13.40
2007,12,29,12,43,8.10
2007,12,29,12,44,5.90
2007,12,29,12,45,6.60
2007,12,29,12,46,2.10
2007,12,29,12,47,5.00
2007,12,29,12,48,6.70
2007,12,29,12,49,5.90
2007,12,29,12,50,7.20
2007,12,29,12,51,4.90
2007,12,29,12,52,5.00
2007,12,29,12,53,6.40
2007,12,29,12,54,5.20
2007,12,29,12,55,3.80
2007,12,29,12,56,2.30
2007,12,29,12,57,5.10
2007,12,29,12,58,6.10
2007,12,29,12,59,4.90
2007,12,29,13,00,5.40
2007,12,29,13,01,10.50
2007,12,29,13,02,12.80
2007,12,29,13,03,4.30
2007,12,29,13,04,6.50
2007,12,29,13,05,5.60
2007,12,29,13,06,0.80
2007,12,29,13,07,5.50
2007,12,29,13,08,5.50
2007,12,29,13,09,5.00
2007,12,29,13,10,5.10
2007,12,29,13,11,9.80
2007,12,29,13,12,6.10
2007,12,29,13,13,4.70
2007,12,29,13,14,6.20
2007,12,29,13,15,5.00
2007,12,29,13,16,1.70
2007,12,29,13,17,1.20
2007,12,29,13,18,3.10
2007,12,29,13,19,2.20
2007,12,29,13,20,3.20
2007,12,29,13,21,2.70
2007,12,29,13,22,7.60
2007,12,29,13,23,8.40
2007,12,29,13,24,6.10
2007,12,29,13,25,7.10
2007,12,29,13,26,7.70
2007,12,29,13,27,3.10
2007,12,29,13,28,2.70
2007,12,29,13,29,5.10
2007,12,29,13,30,2.10
2007,12,29,13,31,4.30
2007,12,29,13,32,4.70
2007,12,29,13,33,1.90
2007,12,29,13,34,3.90
2007,12,29,13,35,6.00
2007,12,29,13,36,6.50
2007,12,29,13,37,9.40
2007,12,29,13,38,7.00
2007,12,29,13,39,7.20
2007,12,29,13,40,6.30
2007,12,29,13,41,7.50
2007,12,29,13,42,6.60
2007,12,29,13,43,10.10
2007,12,29,13,44,5.10
2007,12,29,13,45,4.50
2007,12,29,13,46,4.70
2007,12,29,13,47,4.20
2007,12,29,13,48,6.00
2007,12,29,13,49,5.20
2007,12,29,13,50,9.50
2007,12,29,13,51,6.30
2007,12,29,13,52,1.60
2007,12,29,13,53,7.00
2007,12,29,13,54,12.60
2007,12,29,13,55,8.00
2007,12,29,13,56,5.80
2007,12,29,13,57,6.20
2007,12,29,13,58,3.80
2007,12,29,13,59,8.10
2007,12,29,14,00,5.60
2007,12,29,14,01,3.90
2007,12,29,14,02,7.40
2007,12,29,14,03,9.70
2007,12,29,14,04,9.40
2007,12,29,14,05,6.00
2007,12,29,14,06,6.00
2007,12,29,14,07,2.30
2007,12,29,14,08,6.80
2007,12,29,14,09,10.50
2007,12,29,14,10,8.90
2007,12,29,14,11,9.80
2007,12,29,14,12,13.80
2007,12,29,14,13,14.60
2007,12,29,14,14,9.40
2007,12,29,14,15,6.70
2007,12,29,14,16,8.00
2007,12,29,14,17,11.00
2007,12,29,14,18,8.00
2007,12,29,14,19,8.20
2007,12,29,14,20,10.50
2007,12,29,14,21,4.90
2007,12,29,14,22,9.80
2007,12,29,14,23,8.00
2007,12,29,14,24,4.70
2007,12,29,14,25,7.60
2007,12,29,14,26,4.80
2007,12,29,14,27,2.90
2007,12,29,14,28,8.90
2007,12,29,14,29,6.90
2007,12,29,14,30,6.30
2007,12,29,14,31,3.50
2007,12,29,14,32,4.60
2007,12,29,14,33,3.10
2007,12,29,14,34,4.10
2007,12,29,14,35,1.90
2007,12,29,14,36,0.60
2007,12,29,14,37,3.70
2007,12,29,14,38,2.90
2007,12,29,14,39,1.20
2007,12,29,14,40,3.80
2007,12,29,14,41,5.30
2007,12,29,14,42,4.70
2007,12,29,14,43,4.70
2007,12,29,14,44,3.00
2007,12,29,14,45,3.90
2007,12,29,14,46,0.80
2007,12,29,14,47,0.00
2007,12,29,14,48,2.10
2007,12,29,14,49,3.30
2007,12,29,14,50,2.80
2007,12,29,14,51,1.30
2007,12,29,14,52,0.40
2007,12,29,14,53,0.00
2007,12,29,14,54,0.10
2007,12,29,14,55,0.10
2007,12,29,14,56,0.00
2007,12,29,14,57,0.00
2007,12,29,14,58,0.00
2007,12,29,14,59,0.00
2007,12,29,15,00,0.10
2007,12,29,15,01,1.00
2007,12,29,15,02,0.10
2007,12,29,15,03,0.00
2007,12,29,15,04,0.00
2007,12,29,15,05,0.00
2007,12,29,15,06,0.00
2007,12,29,15,07,0.00
2007,12,29,15,08,1.70
2007,12,29,15,09,1.20
2007,12,29,15,10,1.30
2007,12,29,15,11,0.40
2007,12,29,15,12,0.00
2007,12,29,15,13,0.00
2007,12,29,15,14,0.00
2007,12,29,15,15,0.00
2007,12,29,15,16,0.00
2007,12,29,15,17,0.00
2007,12,29,15,18,0.00
2007,12,29,15,19,1.30
2007,12,29,15,20,3.30
2007,12,29,15,21,3.00
2007,12,29,15,22,1.00
2007,12,29,15,23,0.00
2007,12,29,15,24,0.00
2007,12,29,15,25,0.10
2007,12,29,15,26,0.00
2007,12,29,15,27,0.00
2007,12,29,15,28,2.00
2007,12,29,15,29,2.10
2007,12,29,15,30,1.50
2007,12,29,15,31,0.00
2007,12,29,15,32,0.00
2007,12,29,15,33,0.00
2007,12,29,15,34,0.00
2007,12,29,15,35,0.00
2007,12,29,15,36,0.00
2007,12,29,15,37,0.00
2007,12,29,15,38,0.00
2007,12,29,15,39,0.30
2007,12,29,15,40,3.60
2007,12,29,15,41,4.60
2007,12,29,15,42,2.30
2007,12,29,15,43,0.00
2007,12,29,15,44,0.00
2007,12,29,15,45,0.00
2007,12,29,15,46,0.10
2007,12,29,15,47,1.90
2007,12,29,15,48,0.50
2007,12,29,15,49,0.60
2007,12,29,15,50,4.70
2007,12,29,15,51,5.10
2007,12,29,15,52,5.40
2007,12,29,15,53,4.00
2007,12,29,15,54,2.60
2007,12,29,15,55,0.20
2007,12,29,15,56,0.00
2007,12,29,15,57,0.00
2007,12,29,15,58,0.50
2007,12,29,15,59,0.00
2007,12,29,16,00,1.90
2007,12,29,16,01,2.90
2007,12,29,16,02,0.40
2007,12,29,16,03,0.00
2007,12,29,16,04,0.10
2007,12,29,16,05,0.20
2007,12,29,16,06,0.20
2007,12,29,16,07,1.50
2007,12,29,16,08,1.20
2007,12,29,16,09,1.60
2007,12,29,16,10,2.00
2007,12,29,16,11,1.50
2007,12,29,16,12,0.10
2007,12,29,16,13,0.00
2007,12,29,16,14,0.00
2007,12,29,16,15,0.00
2007,12,29,16,16,2.30
2007,12,29,16,17,2.00
2007,12,29,16,18,0.10
2007,12,29,16,19,0.00
2007,12,29,16,20,0.00
2007,12,29,16,21,0.00
2007,12,29,16,22,0.00
2007,12,29,16,23,0.00
2007,12,29,16,24,0.00
2007,12,29,16,25,0.00
2007,12,29,16,26,0.00
2007,12,29,16,27,0.00
2007,12,29,16,28,0.00
2007,12,29,16,29,0.00
2007,12,29,16,30,0.00
2007,12,29,16,31,0.00
2007,12,29,16,32,0.10
2007,12,29,16,33,0.00
2007,12,29,16,34,0.00
2007,12,29,16,35,0.00
2007,12,29,16,36,0.00
2007,12,29,16,37,0.00
2007,12,29,16,38,0.00
2007,12,29,16,39,0.00
2007,12,29,16,40,0.00
2007,12,29,16,41,2.50
2007,12,29,16,42,2.00
2007,12,29,16,43,0.30
2007,12,29,16,44,0.00
2007,12,29,16,45,0.10
2007,12,29,16,46,0.40
2007,12,29,16,47,1.90
2007,12,29,16,48,1.70
2007,12,29,16,49,0.10
2007,12,29,16,50,1.10
2007,12,29,16,51,1.10
2007,12,29,16,52,0.40
2007,12,29,16,53,1.10
2007,12,29,16,54,2.70
2007,12,29,16,55,1.30
2007,12,29,16,56,2.30
2007,12,29,16,57,1.30
2007,12,29,16,58,1.80
2007,12,29,16,59,1.10
2007,12,29,17,00,2.30
2007,12,29,17,01,4.20
2007,12,29,17,02,5.00
2007,12,29,17,03,4.40
2007,12,29,17,04,5.80
2007,12,29,17,05,4.70
2007,12,29,17,06,3.30
2007,12,29,17,07,3.90
2007,12,29,17,08,4.60
2007,12,29,17,09,4.50
2007,12,29,17,10,4.70
2007,12,29,17,11,1.90
2007,12,29,17,12,0.20
2007,12,29,17,13,0.10
2007,12,29,17,14,0.60
2007,12,29,17,15,0.50
2007,12,29,17,16,0.20
2007,12,29,17,17,1.70
2007,12,29,17,18,2.90
2007,12,29,17,19,3.30
2007,12,29,17,20,6.40
2007,12,29,17,21,4.50
2007,12,29,17,22,5.20
2007,12,29,17,23,3.10
2007,12,29,17,24,3.40
2007,12,29,17,25,1.40
2007,12,29,17,26,1.10
2007,12,29,17,27,0.50
2007,12,29,17,28,0.00
2007,12,29,17,29,0.00
2007,12,29,17,30,0.00
2007,12,29,17,31,1.90
2007,12,29,17,32,1.50
2007,12,29,17,33,0.00
2007,12,29,17,34,0.20
2007,12,29,17,35,2.20
2007,12,29,17,36,3.20
2007,12,29,17,37,2.70
2007,12,29,17,38,4.50
2007,12,29,17,39,4.30
2007,12,29,17,40,6.20
2007,12,29,17,41,6.90
2007,12,29,17,42,13.00
2007,12,29,17,43,6.40
2007,12,29,17,44,0.60
2007,12,29,17,45,3.10
2007,12,29,17,46,4.50
2007,12,29,17,47,3.40
2007,12,29,17,48,2.50
2007,12,29,17,49,2.50
2007,12,29,17,50,4.40
2007,12,29,17,51,2.60
2007,12,29,17,52,4.70
2007,12,29,17,53,2.40
2007,12,29,17,54,2.20
2007,12,29,17,55,3.00
2007,12,29,17,56,2.00
2007,12,29,17,57,2.40
2007,12,29,17,58,3.50
2007,12,29,17,59,2.30
2007,12,29,18,00,1.60
2007,12,29,18,01,9.10
2007,12,29,18,02,16.50